Wind_Speed
4 2 2 1 1 1 2 3 5 6 7 9 11 11 12 12 12 11 10 10 10 9 8 7 7 6 6 6 6 5 5 5 5 5 5 4 4 3 3 3 3 2 2 2 1 1 1 1 1
5 4 3 2 1 0 2 4 5 6 7 9 10 11 11 12 12 11 10 10 9 9 8 7 7 6 6 6 5 5 4 4 4 4 4 4 3 3 3 3 3 2 1 1 1 1 1 0 1
6 5 4 3 2 2 2 4 4 4 6 8 9 10 11 12 12 11 10 10 9 9 7 7 7 6 6 5 5 4 4 4 3 3 4 3 3 3 4 4 2 1 1 1 1 0 0 1 1
7 6 6 5 3 2 2 3 4 3 4 7 8 9 10 11 11 11 10 9 9 9 7 7 7 6 6 5 5 4 4 3 3 3 3 2 2 3 4 4 3 2 1 1 1 0 1 1 1
8 7 7 5 4 4 3 4 4 4 5 6 8 9 10 11 11 10 10 9 9 8 8 7 7 6 6 5 5 4 4 3 3 3 2 2 2 3 3 3 3 2 1 1 1 1 1 2 2
9 8 7 6 6 6 5 5 4 4 5 6 8 9 10 11 11 11 10 10 9 8 7 7 6 6 5 5 5 4 4 3 3 2 1 1 2 3 3 3 3 3 2 2 2 2 2 3 3
10 9 8 7 7 7 6 6 5 5 6 7 8 9 10 11 11 11 11 10 9 8 8 7 6 6 5 5 5 4 3 3 3 3 2 1 2 3 3 3 3 3 3 2 2 3 3 4 3
12 11 10 9 9 8 8 7 7 6 7 7 8 9 10 11 11 11 11 10 8 8 8 7 6 5 5 5 4 4 3 3 3 3 3 3 3 3 3 3 3 4 4 3 3 4 5 5 4
13 13 11 10 9 9 9 7 7 7 7 8 8 9 10 11 12 12 11 10 9 8 7 7 6 6 5 4 4 4 3 3 3 4 4 4 4 3 3 4 4 4 4 3 4 4 5 5 5
14 14 13 12 10 10 9 9 8 7 7 8 8 8 9 11 11 12 11 11 9 8 7 7 6 5 5 4 4 3 3 3 3 4 5 5 5 5 4 4 5 5 5 5 5 5 5 6 6
16 15 15 14 13 13 12 11 10 9 8 8 8 6 8 10 11 10 10 10 9 8 8 6 6 5 5 4 4 3 2 3 3 4 4 5 5 5 5 5 4 4 5 5 6 6 6 6 6
16 16 16 16 16 15 14 13 11 10 9 8 8 7 7 9 10 10 9 9 9 8 8 7 6 5 5 4 4 3 3 3 3 3 3 4 5 5 6 5 5 5 6 6 7 7 7 7 8
17 16 16 16 17 17 16 14 12 10 10 9 9 8 8 9 10 10 9 8 9 8 8 7 5 6 5 5 4 4 4 4 3 3 3 4 4 5 5 5 5 5 6 6 7 7 8 8 8
17 16 16 17 18 18 17 16 14 11 11 10 10 9 8 9 10 10 9 9 9 8 8 7 6 6 6 6 5 5 5 5 5 4 4 3 4 5 5 6 5 6 6 7 7 8 8 8 9
17 16 16 17 18 18 18 17 16 14 13 11 10 9 9 9 9 9 9 9 9 8 8 8 7 7 7 7 6 6 7 7 6 6 6 6 5 5 6 6 6 6 7 7 7 8 9 9 10
18 17 16 17 18 19 19 17 17 16 15 13 11 10 9 9 9 9 9 9 9 8 9 8 8 7 7 8 9 9 9 9 8 8 8 8 7 6 6 7 7 7 8 9 9 9 9 9 9
19 18 16 17 19 20 20 18 17 18 16 14 13 12 10 10 9 9 10 10 9 9 8 9 9 9 9 9 10 10 10 9 9 9 8 8 8 7 7 8 8 8 8 8 8 9 9 9 9
19 19 18 19 20 21 20 18 18 17 17 15 14 13 12 11 10 10 10 10 10 10 10 10 9 10 10 10 10 10 10 10 9 9 8 8 8 9 9 9 9 9 8 9 8 8 9 9 10
21 21 19 19 21 21 21 20 19 19 18 16 15 13 12 12 11 10 10 11 11 11 11 11 10 10 10 11 11 11 10 9 9 9 9 8 9 10 10 9 10 10 10 9 9 9 10 10 10
22 21 20 21 22 23 23 22 21 20 19 18 16 15 13 13 13 12 12 11 11 12 12 11 11 11 12 12 12 11 11 9 9 9 10 9 9 10 10 9 11 11 11 11 11 11 11 11 11
23 22 21 22 23 24 25 24 22 21 20 19 18 17 16 15 15 15 14 13 12 12 12 12 12 12 13 13 13 12 11 10 10 10 11 11 11 10 11 11 11 12 11 12 12 12 12 12 12
23 22 22 23 24 24 24 24 22 22 21 20 19 18 17 16 15 15 14 14 14 13 14 13 13 13 14 14 14 14 13 12 12 11 12 12 12 12 13 13 13 13 12 12 12 14 13 13 13
22 22 23 23 25 26 26 26 23 22 22 21 20 19 18 17 15 14 15 15 15 15 15 14 14 14 15 15 14 14 14 13 13 12 12 12 13 13 13 13 13 12 12 13 13 14 14 14 14
22 23 23 24 25 26 25 26 23 22 22 22 21 20 19 18 17 15 16 16 16 16 16 15 15 16 16 15 14 13 13 12 13 13 14 14 13 14 14 14 13 13 14 14 15 15 15 15 16
23 23 24 25 26 25 23 25 23 21 22 22 22 22 21 19 18 18 17 17 17 17 16 17 17 16 17 16 16 14 13 12 13 14 15 15 16 16 15 15 15 15 16 16 16 17 17 17 17
24 24 25 26 26 25 25 25 23 21 22 22 23 23 23 21 20 19 19 18 18 18 18 18 18 18 18 18 17 16 15 15 14 15 16 17 17 17 18 18 17 17 18 18 17 17 17 17 17
25 25 25 26 27 27 27 26 24 22 22 23 24 23 23 21 20 20 20 20 20 20 20 20 20 19 19 19 18 17 17 17 17 17 17 18 18 18 18 19 19 19 19 19 18 18 18 18 18
25 25 26 27 27 28 27 26 24 23 23 23 23 22 22 22 21 21 22 22 22 23 22 21 21 20 20 20 19 19 19 18 18 19 20 20 20 19 20 20 20 20 20 20 20 20 20 19 19
26 26 26 27 28 29 28 26 23 22 23 23 23 23 23 23 23 23 24 24 23 23 23 23 22 22 21 21 21 21 20 19 19 19 20 20 21 20 19 19 20 21 21 21 20 20 20 20 20
27 27 28 28 28 28 28 26 23 23 24 23 22 23 23 23 24 23 23 23 22 22 22 23 23 22 22 22 22 21 21 20 20 20 21 21 21 22 21 21 21 22 21 21 22 22 22 22 22
Wind_Direction
208 197 180 159 99 3 349 2 6 15 16 15 15 15 13 10 8 3 1 1 358 356 353 351 351 352 358 4 10 17 21 22 24 20 20 17 17 9 6 10 1 3 12 34 46 51 130 189 201
219 211 212 215 220 310 336 357 3 13 15 13 11 10 7 5 3 2 359 357 353 351 352 353 354 351 354 359 3 8 11 13 14 14 17 12 5 2 358 355 353 359 0 14 34 58 88 194 218
221 220 223 231 237 288 334 349 352 2 11 9 8 6 3 1 360 358 358 355 350 347 351 357 357 356 356 0 3 8 9 9 10 15 16 11 360 352 349 341 342 339 327 337 1 59 246 252 230
224 226 231 235 245 276 309 331 338 344 360 358 358 357 359 360 358 357 355 353 349 349 352 352 355 358 360 360 1 4 5 1 357 357 12 8 341 334 348 339 322 311 306 313 324 243 228 244 248
228 230 232 235 248 260 283 317 341 347 347 353 354 353 355 357 354 352 353 351 351 354 355 353 354 359 2 1 359 357 356 353 351 343 341 341 327 325 339 335 323 309 306 291 258 250 260 259 257
236 239 233 236 250 262 273 297 330 342 347 352 355 355 354 350 349 350 350 349 349 353 356 357 355 357 358 356 349 345 347 350 351 350 324 295 320 327 328 325 314 307 290 273 248 247 253 262 261
241 241 237 241 247 255 267 283 301 323 337 346 347 350 350 348 348 350 349 348 350 351 352 350 350 351 348 342 342 339 338 347 344 336 330 326 335 336 333 325 317 313 306 279 273 262 255 254 253
244 247 242 247 248 255 265 276 295 313 328 336 343 345 346 347 347 349 348 347 347 346 347 348 345 345 343 339 338 332 325 327 330 326 327 327 328 334 336 325 312 313 309 293 274 272 273 263 257
244 247 248 252 254 257 261 273 291 311 318 331 340 342 343 345 347 349 348 348 345 344 343 347 348 347 340 337 338 329 318 315 319 317 319 322 322 321 317 316 301 302 299 288 277 275 272 265 261
243 246 248 253 259 260 264 273 283 296 310 321 327 332 336 338 342 347 348 346 345 344 339 342 348 350 349 342 336 330 323 318 317 312 308 309 310 312 304 306 300 293 292 281 278 274 268 265 262
245 245 246 249 256 259 265 269 279 288 298 307 315 326 332 330 335 340 342 341 339 337 340 340 341 345 347 344 337 328 318 314 317 318 313 310 307 307 306 304 299 297 294 280 273 266 263 260 255
248 249 248 248 255 259 265 270 274 284 292 295 303 316 327 324 328 333 334 334 335 336 340 337 339 337 337 329 323 307 314 312 313 319 318 314 311 308 304 300 294 288 285 274 271 267 257 256 255
247 250 253 253 256 260 262 266 272 277 281 285 291 301 313 322 327 329 332 330 332 335 341 340 332 330 325 321 310 304 304 304 306 310 312 312 313 310 308 306 301 292 283 275 268 265 259 260 258
249 250 253 250 254 258 259 262 269 270 271 276 283 295 306 318 322 324 326 328 331 335 335 335 326 318 318 314 302 293 289 297 293 293 300 308 310 312 309 310 304 296 286 278 272 266 262 261 260
248 250 252 250 254 254 259 260 265 268 269 271 279 288 301 311 317 319 319 324 325 327 327 328 326 313 306 303 301 288 283 286 290 287 293 294 297 303 303 304 299 294 289 279 272 263 260 262 262
248 251 253 251 254 255 258 260 260 263 266 267 271 278 290 297 304 311 315 319 318 319 317 315 316 310 299 294 292 290 285 281 285 284 289 290 291 293 298 298 297 295 291 285 276 265 260 260 260
248 250 253 252 254 253 256 258 255 258 261 263 266 270 279 288 294 303 307 311 312 313 312 307 303 299 294 288 287 288 286 284 283 279 283 287 286 288 291 293 295 296 296 292 285 271 264 262 261
250 252 252 252 253 254 256 258 257 255 259 259 261 267 275 283 291 293 296 301 306 308 309 308 303 299 293 291 285 287 284 279 281 277 282 286 284 288 285 291 293 295 297 297 294 280 268 265 262
247 250 251 251 253 255 256 256 257 256 259 259 260 268 275 280 284 282 287 293 298 305 305 304 305 301 298 294 295 294 289 281 280 279 282 284 284 287 286 286 287 288 290 290 286 278 275 270 267
248 251 252 251 251 253 254 254 255 257 258 259 263 268 270 274 274 275 281 284 287 296 302 305 303 301 297 294 295 296 291 288 287 284 281 282 286 284 282 285 289 289 284 282 280 276 274 273 272
249 252 253 251 252 255 255 254 253 256 257 258 262 263 266 271 273 275 277 278 277 284 293 301 300 302 300 296 292 290 286 284 284 285 278 277 281 280 281 285 289 289 284 281 278 274 274 274 273
251 254 254 252 252 255 258 257 254 256 257 258 260 261 264 268 271 276 278 278 276 279 286 292 296 301 302 298 292 286 279 278 278 279 277 275 279 283 283 285 285 282 280 280 279 274 273 273 271
251 252 253 253 253 254 258 260 258 258 258 260 260 260 262 267 269 275 277 278 277 276 279 284 288 294 296 294 290 283 277 273 273 274 275 279 281 284 283 286 284 280 277 276 276 275 272 271 271
248 249 252 253 254 255 257 260 260 259 258 258 259 260 263 266 268 271 273 274 273 274 276 280 285 290 291 290 286 282 277 271 270 272 275 277 280 283 284 280 278 279 278 277 275 274 272 271 272
247 249 252 253 254 257 256 258 261 260 259 260 260 262 264 265 267 270 273 275 272 272 275 278 283 287 289 288 288 281 274 271 270 270 273 276 277 279 282 282 278 278 278 279 278 275 275 275 273
248 251 254 257 259 260 259 261 263 264 263 262 262 263 264 265 266 269 271 273 271 271 274 276 280 283 284 285 287 281 274 272 270 270 271 275 277 276 280 281 278 278 277 278 277 274 275 277 277
250 252 255 258 260 261 260 262 263 263 263 260 261 263 262 263 265 265 267 268 268 270 272 274 276 278 279 280 280 277 273 272 272 272 272 274 274 276 278 280 280 278 277 277 276 274 275 276 277
249 252 254 257 261 261 263 263 264 263 261 260 260 262 262 262 264 264 265 266 268 269 270 271 273 275 277 276 276 273 273 271 272 272 273 274 275 275 276 277 280 280 279 277 276 275 274 273 274
249 252 255 258 259 262 264 265 265 263 262 262 261 261 262 260 261 262 263 267 268 267 268 271 273 274 275 275 274 274 273 273 275 277 277 278 278 275 276 276 279 279 278 276 275 274 274 275 274
251 253 255 257 259 261 264 265 264 262 262 261 261 261 260 260 260 261 263 264 265 267 268 270 272 273 275 275 273 273 274 274 275 275 275 275 277 277 277 277 279 279 277 276 275 275 275 274 273
Height
5887 5888 5889 5890 5890 5889 5888 5888 5887 5887 5887 5886 5885 5884 5884 5883 5883 5884 5882 5879 5879 5878 5877 5876 5875 5875 5874 5874 5873 5873 5873 5873 5873 5873 5873 5873 5874 5874 5874 5874 5875 5875 5875 5875 5875 5875 5876 5876 5877
5887 5888 5890 5890 5890 5889 5889 5888 5888 5887 5887 5886 5885 5885 5884 5883 5882 5882 5880 5879 5878 5878 5877 5876 5875 5874 5874 5874 5873 5873 5873 5873 5873 5873 5873 5873 5873 5874 5874 5874 5874 5874 5875 5875 5875 5876 5876 5876 5877
5887 5888 5890 5890 5889 5889 5889 5889 5888 5888 5887 5886 5886 5885 5884 5883 5882 5881 5880 5879 5878 5877 5876 5875 5875 5874 5874 5873 5873 5873 5873 5873 5873 5873 5873 5874 5874 5874 5874 5874 5874 5874 5874 5875 5875 5876 5876 5876 5877
5887 5889 5890 5890 5889 5889 5889 5888 5888 5887 5887 5886 5886 5885 5884 5884 5882 5881 5880 5879 5878 5877 5876 5875 5874 5874 5873 5873 5873 5873 5873 5873 5873 5873 5873 5873 5873 5873 5873 5874 5874 5874 5874 5874 5875 5876 5876 5876 5877
5886 5888 5889 5888 5888 5888 5888 5888 5887 5887 5887 5886 5885 5885 5884 5883 5882 5881 5880 5878 5877 5876 5875 5874 5874 5873 5873 5873 5873 5873 5872 5873 5873 5873 5872 5873 5873 5873 5873 5873 5873 5873 5874 5874 5875 5875 5876 5876 5877
5886 5887 5888 5887 5887 5887 5887 5887 5887 5887 5887 5886 5885 5884 5884 5883 5882 5881 5879 5878 5877 5876 5875 5874 5873 5873 5873 5873 5873 5873 5872 5872 5872 5872 5872 5872 5872 5873 5873 5873 5873 5873 5874 5874 5874 5875 5875 5876 5876
5885 5885 5886 5886 5886 5886 5886 5886 5886 5886 5886 5886 5885 5884 5883 5883 5882 5880 5879 5878 5876 5875 5874 5874 5873 5873 5873 5873 5873 5872 5872 5872 5872 5872 5872 5872 5872 5873 5873 5872 5873 5873 5873 5874 5874 5874 5875 5875 5876
5883 5885 5884 5884 5885 5885 5885 5885 5885 5885 5885 5885 5885 5884 5883 5883 5881 5880 5878 5877 5876 5875 5874 5873 5873 5872 5872 5872 5872 5872 5872 5872 5872 5872 5872 5872 5872 5872 5872 5872 5872 5872 5873 5873 5874 5874 5874 5874 5875
5881 5883 5883 5883 5883 5884 5884 5884 5884 5884 5884 5884 5884 5884 5883 5882 5880 5879 5878 5876 5875 5874 5873 5872 5872 5872 5872 5872 5871 5872 5872 5872 5872 5872 5871 5872 5872 5872 5872 5872 5872 5872 5872 5872 5873 5873 5873 5873 5874
5880 5881 5881 5882 5882 5882 5882 5882 5883 5883 5883 5883 5883 5883 5882 5881 5880 5878 5877 5875 5874 5873 5872 5872 5871 5871 5871 5871 5871 5871 5871 5871 5871 5871 5871 5871 5871 5871 5871 5871 5871 5871 5871 5871 5872 5872 5872 5872 5873
5877 5879 5879 5879 5879 5880 5880 5881 5881 5881 5882 5882 5882 5882 5881 5880 5879 5878 5876 5875 5873 5872 5871 5871 5871 5871 5871 5871 5871 5871 5871 5870 5870 5870 5870 5870 5870 5870 5870 5870 5870 5870 5870 5871 5871 5871 5871 5872 5872
5875 5876 5877 5877 5878 5878 5879 5879 5880 5880 5880 5880 5881 5880 5879 5879 5878 5877 5875 5874 5873 5871 5870 5870 5870 5869 5870 5870 5870 5870 5870 5870 5869 5869 5869 5869 5869 5869 5869 5869 5869 5869 5869 5869 5869 5869 5869 5870 5870
5872 5874 5874 5875 5875 5876 5877 5877 5878 5879 5879 5878 5878 5878 5878 5877 5877 5876 5874 5873 5872 5871 5870 5869 5869 5869 5869 5869 5869 5869 5869 5869 5869 5868 5868 5868 5868 5868 5868 5868 5868 5868 5868 5868 5868 5867 5868 5869 5868
5870 5871 5872 5872 5873 5873 5874 5875 5876 5877 5877 5877 5877 5877 5876 5876 5875 5874 5873 5872 5871 5870 5869 5869 5868 5868 5867 5868 5868 5868 5867 5867 5867 5867 5867 5867 5867 5867 5867 5866 5866 5866 5866 5866 5866 5866 5867 5867 5867
5866 5868 5869 5870 5870 5871 5872 5873 5873 5874 5874 5874 5875 5875 5874 5874 5873 5873 5872 5871 5869 5869 5868 5867 5867 5867 5867 5867 5866 5866 5866 5866 5866 5866 5866 5866 5865 5865 5865 5865 5865 5864 5864 5864 5864 5865 5865 5865 5865
5863 5865 5866 5867 5867 5868 5870 5870 5871 5870 5871 5872 5872 5872 5872 5872 5871 5871 5870 5869 5868 5867 5866 5866 5865 5865 5865 5865 5864 5864 5864 5864 5864 5864 5865 5864 5864 5864 5864 5864 5863 5863 5863 5862 5862 5862 5862 5863 5863
5860 5861 5863 5864 5864 5864 5865 5866 5867 5867 5868 5869 5869 5869 5869 5869 5869 5869 5868 5867 5866 5865 5864 5864 5863 5864 5864 5863 5863 5862 5862 5862 5862 5862 5862 5862 5862 5862 5862 5862 5862 5861 5861 5860 5860 5860 5860 5860 5861
5857 5858 5859 5860 5860 5860 5861 5862 5863 5863 5864 5865 5866 5867 5867 5867 5867 5866 5866 5865 5864 5863 5863 5862 5861 5861 5861 5861 5861 5860 5859 5859 5860 5860 5860 5860 5860 5859 5859 5859 5859 5859 5859 5858 5858 5858 5858 5858 5859
5852 5853 5855 5856 5856 5856 5857 5858 5859 5860 5860 5861 5863 5863 5864 5864 5864 5863 5863 5863 5862 5861 5861 5860 5859 5858 5858 5858 5858 5857 5857 5857 5857 5857 5858 5858 5858 5857 5857 5857 5857 5857 5856 5856 5856 5856 5856 5856 5856
5848 5849 5851 5852 5851 5851 5852 5854 5855 5856 5857 5858 5859 5860 5860 5860 5860 5861 5861 5861 5860 5859 5859 5858 5857 5856 5856 5856 5855 5855 5855 5854 5855 5855 5855 5855 5855 5854 5854 5854 5854 5854 5853 5853 5853 5853 5853 5853 5853
5843 5845 5846 5847 5847 5847 5848 5849 5851 5851 5852 5854 5855 5856 5857 5857 5857 5857 5857 5857 5857 5857 5856 5855 5854 5854 5854 5852 5852 5852 5852 5852 5852 5852 5853 5853 5852 5852 5852 5851 5851 5850 5850 5850 5850 5850 5850 5850 5849
5839 5841 5841 5842 5841 5842 5843 5843 5846 5847 5848 5850 5851 5852 5853 5854 5854 5854 5853 5853 5853 5853 5853 5853 5852 5852 5851 5850 5850 5849 5849 5849 5850 5850 5850 5850 5849 5849 5848 5848 5847 5847 5847 5847 5847 5847 5847 5846 5846
5834 5835 5836 5836 5836 5837 5837 5838 5841 5842 5843 5845 5846 5847 5849 5850 5850 5850 5849 5849 5850 5849 5849 5849 5849 5849 5848 5847 5846 5845 5845 5846 5846 5846 5846 5846 5846 5845 5844 5844 5844 5843 5844 5844 5843 5843 5843 5843 5843
5828 5830 5830 5830 5831 5832 5833 5833 5835 5837 5839 5840 5841 5843 5844 5845 5846 5845 5845 5845 5845 5845 5846 5846 5845 5845 5844 5843 5842 5842 5842 5842 5842 5843 5843 5843 5842 5842 5841 5840 5840 5840 5840 5840 5840 5839 5839 5839 5839
5822 5824 5825 5825 5825 5827 5829 5828 5831 5833 5834 5835 5837 5838 5839 5840 5840 5841 5841 5841 5842 5842 5842 5842 5841 5841 5840 5839 5838 5838 5838 5838 5838 5839 5839 5839 5838 5838 5837 5837 5837 5837 5836 5836 5836 5835 5835 5834 5834
5818 5820 5821 5821 5822 5823 5824 5823 5827 5828 5829 5830 5831 5832 5833 5834 5835 5836 5836 5836 5836 5837 5837 5837 5837 5836 5836 5836 5835 5835 5834 5834 5834 5834 5834 5834 5833 5833 5833 5833 5832 5832 5832 5831 5831 5830 5830 5829 5829
5812 5814 5816 5816 5816 5817 5818 5819 5821 5823 5823 5824 5825 5826 5827 5828 5829 5830 5830 5830 5831 5831 5832 5832 5832 5831 5831 5831 5831 5830 5830 5830 5830 5830 5829 5829 5829 5828 5828 5828 5827 5827 5827 5826 5826 5826 5825 5825 5825
5807 5808 5809 5810 5810 5810 5812 5813 5816 5817 5818 5819 5819 5820 5822 5823 5824 5824 5824 5825 5825 5825 5826 5826 5826 5826 5826 5826 5826 5825 5825 5825 5824 5824 5824 5824 5823 5823 5823 5823 5822 5821 5821 5821 5821 5821 5820 5820 5819
5801 5802 5803 5804 5804 5805 5805 5810 5811 5811 5812 5813 5814 5815 5816 5816 5817 5818 5818 5818 5818 5818 5819 5820 5820 5820 5820 5820 5820 5819 5819 5819 5819 5819 5819 5818 5818 5817 5817 5817 5816 5816 5816 5815 5815 5815 5815 5814 5814
5795 5796 5797 5798 5799 5799 5800 5805 5805 5805 5806 5806 5808 5808 5809 5810 5811 5811 5812 5812 5812 5812 5812 5813 5814 5814 5814 5814 5814 5813 5813 5814 5813 5813 5813 5812 5812 5812 5811 5811 5811 5810 5810 5810 5809 5809 5809 5808 5808